GW1852 Weather Reports


Display with metric or nautical units.
time (UTC)temp
F
wind
direction
speed
MPH
gust
MPH
rain 1hr
in
rain 24hr
in
rain mn
in
humidity
%
barometer
mb
20260508030035 60 297 0.0 0.0 0.00 0.00 0.00 44 1012.7
20260508024535 60 335 0.0 0.0 0.00 0.00 0.00 47 1012.9
20260508023037 59 336 0.0 0.0 0.00 0.00 0.00 48 1012.3
20260508021531 60 319 2.0 4.0 0.00 0.00 0.00 48 1012.0
20260508020030 62 311 2.0 4.0 0.00 0.00 0.00 42 1011.9
20260508014529 63 322 1.0 2.0 0.00 0.00 0.00 41 1011.8
20260508013029 64 328 1.0 3.0 0.00 0.00 0.00 41 1011.8
20260508011529 66 314 3.0 6.0 0.00 0.00 0.00 37 1011.7
20260508010031 66 341 4.0 8.0 0.00 0.00 0.00 40 1011.8
20260508004528 67 327 6.0 9.0 0.00 0.00 0.00 38 1011.8
20260508003025 67 321 5.0 10.0 0.00 0.00 0.00 40 1011.7
20260508001539 66 298 9.0 12.0 0.00 0.00 0.00 39 1011.7
20260508000022 65 338 7.0 17.0 0.00 0.00 0.00 43 1011.8
20260507234520 65 300 15.0 22.0 0.00 0.00 0.00 44 1011.7
20260507233025 66 285 8.0 12.0 0.00 0.00 0.00 38 1011.6
20260507231522 65 288 7.0 10.0 0.00 0.00 0.00 37 1011.6
20260507230027 65 270 5.0 7.0 0.00 0.00 0.00 38 1011.6
20260507224527 65 282 7.0 11.0 0.00 0.00 0.00 36 1011.7
20260507223017 65 267 7.0 16.0 0.00 0.00 0.00 41 1011.8
20260507221523 65 296 14.0 21.0 0.00 0.00 0.00 37 1011.8
20260507220018 65 272 6.0 10.0 0.00 0.00 0.00 37 1011.9
20260507214515 65 276 8.0 13.0 0.00 0.00 0.00 38 1012.0
20260507213015 67 264 13.0 20.0 0.00 0.00 0.00 34 1012.1
20260507211528 66 283 6.0 13.0 0.00 0.00 0.00 37 1012.2
20260507210014 68 290 8.0 13.0 0.00 0.00 0.00 32 1012.2
20260507204512 67 277 7.0 10.0 0.00 0.00 0.00 33 1012.4
20260507203011 66 31 3.0 8.0 0.00 0.00 0.00 33 1012.4
20260507201516 65 335 5.0 9.0 0.00 0.00 0.00 36 1012.4
20260507200012 66 340 4.0 9.0 0.00 0.00 0.00 35 1012.4
20260507194509 67 292 8.0 17.0 0.00 0.00 0.00 32 1012.3
20260507193008 67 292 9.0 16.0 0.00 0.00 0.00 32 1012.2
20260507191507 68 340 8.0 12.0 0.00 0.00 0.00 31 1012.2
20260507190006 65 317 5.0 8.0 0.00 0.00 0.00 35 1012.2
20260507184505 65 293 5.0 9.0 0.00 0.00 0.00 34 1012.3
20260507183005 65 277 6.0 10.0 0.00 0.00 0.00 33 1012.4
20260507181504 67 333 6.0 10.0 0.00 0.00 0.00 33 1012.5
20260507180003 67 338 6.0 10.0 0.00 0.00 0.00 32 1012.6
20260507174603 65 295 4.0 10.0 0.00 0.00 0.00 33 1012.8
20260507173106 65 340 7.0 10.0 0.00 0.00 0.00 35 1013.0
20260507171558 65 290 0.0 9.0 0.00 0.00 0.00 34 1012.9
20260507170058 63 311 0.0 9.0 0.00 0.00 0.00 36 1012.9
20260507164554 63 305 0.0 9.0 0.00 0.00 0.00 36 1012.9
20260507163056 62 298 0.0 0.0 0.00 0.00 0.00 38 1013.0
20260507161552 61 293 0.0 0.0 0.00 0.00 0.00 41 1012.9
20260507160045 59 250 0.0 5.0 0.00 0.00 0.00 42 1013.0
20260507154545 56 250 2.0 5.0 0.00 0.00 0.00 52 1013.1
20260507153045 57 304 3.0 7.0 0.00 0.00 0.00 42 1013.0
20260507151542 54 335 4.0 6.0 0.00 0.00 0.00 47 1013.2
20260507150041 53 338 4.0 8.0 0.00 0.00 0.00 47 1013.2
20260507144543 51 342 4.0 9.0 0.00 0.00 0.00 52 1013.3
20260507143044 49 354 4.0 8.0 0.00 0.00 0.00 54 1013.2
20260507141539 48 347 6.0 9.0 0.00 0.00 0.00 55 1013.2
20260507140037 47 347 5.0 7.0 0.00 0.00 0.00 61 1013.0
20260507134534 47 337 4.0 7.0 0.00 0.00 0.00 63 1012.8
20260507133037 46 338 3.0 7.0 0.00 0.00 0.00 62 1012.7
20260507131537 45 349 5.0 9.0 0.00 0.00 0.00 63 1012.6
20260507130033 45 4 6.0 10.0 0.00 0.00 0.00 65 1012.4
20260507124525 45 354 4.0 6.0 0.00 0.00 0.00 71 1012.2
20260507123024 45 354 2.0 4.0 0.00 0.00 0.00 63 1012.1
20260507121521 45 347 1.0 4.0 0.00 0.00 0.00 59 1011.9
20260507120019 46 355 1.0 4.0 0.00 0.00 0.00 53 1011.7
20260507114517 46 11 2.0 6.0 0.00 0.00 0.00 50 1011.7
20260507113019 45 343 2.0 8.0 0.00 0.00 0.00 55 1011.5
20260507111517 45 344 2.0 10.0 0.00 0.00 0.00 61 1011.4
20260507110012 45 274 1.0 4.0 0.00 0.00 0.00 66 1011.3
20260507104509 45 347 2.0 4.0 0.00 0.00 0.00 63 1011.4
20260507103005 46 2 3.0 6.0 0.00 0.00 0.00 56 1011.3
20260507101506 45 18 3.0 5.0 0.00 0.00 0.00 52 1011.3
20260507100008 44 33 3.0 5.0 0.00 0.00 0.00 52 1011.2
20260507094601 45 12 2.0 4.0 0.00 0.00 0.00 49 1011.4
20260507093056 46 30 3.0 9.0 0.00 0.00 0.00 50 1011.1
20260507091552 47 49 4.0 9.0 0.00 0.00 0.00 53 1010.6
20260507090056 48 77 1.0 3.0 0.00 0.00 0.00 49 1010.4
20260507084549 48 46 0.0 1.0 0.00 0.00 0.00 47 1010.3
20260507083045 49 333 0.0 0.0 0.00 0.00 0.00 45 1010.4
20260507081541 51 98 0.0 0.0 0.00 0.00 0.00 43 1010.1
20260507080045 53 69 0.0 0.0 0.00 0.00 0.00 44 1010.0
20260507074535 52 85 0.0 0.0 0.00 0.00 0.00 42 1009.6
20260507073039 54 123 0.0 0.0 0.00 0.00 0.00 43 1009.5
20260507071529 55 79 0.0 0.0 0.00 0.00 0.00 37 1009.5
20260507070025 56 131 0.0 0.0 0.00 0.00 0.00 38 1009.2
20260507064523 57 131 0.0 0.0 0.00 0.00 0.00 38 1008.9
20260507063018 58 63 0.0 0.0 0.00 0.00 0.00 31 1009.6
20260507061516 58 52 0.0 0.0 0.00 0.00 0.00 29 1009.3
20260507060019 59 92 0.0 0.0 0.00 0.00 0.00 31 1008.6
20260507054512 59 141 0.0 0.0 0.00 0.00 0.00 37 1008.3
20260507053012 59 68 0.0 0.0 0.00 0.00 0.00 41 1008.1
20260507051512 58 102 1.0 3.0 0.00 0.00 0.00 48 1008.0
20260507050033 60 238 3.0 3.0 0.00 0.00 0.00 38 1008.0
20260507044509 61 259 3.0 5.0 0.00 0.00 0.00 40 1008.1
20260507043009 62 286 1.0 3.0 0.00 0.00 0.00 35 1008.1
20260507041510 64 51 0.0 1.0 0.00 0.00 0.00 33 1008.1
20260507040006 65 31 0.0 2.0 0.00 0.00 0.00 29 1008.2
20260507034506 66 30 3.0 11.0 0.00 0.00 0.00 29 1008.2
20260507033105 65 90 15.0 20.0 0.00 0.00 0.00 29 1008.4
20260507031502 63 49 6.0 9.0 0.00 0.00 0.00 33 1008.4